Time,TemperatureF,DewpointF,PressureIn,WindDirection,WindDirectionDegrees,WindSpeedMPH,WindSpeedGustMPH,Humidity,HourlyPrecipIn,Conditions,Clouds,dailyrainin,SoftwareType,DateUTC
2014-08-01 00:03:00,64.7,57.7,29.97,SW,227,0.0,0.0,78,0.00,,,0.00,Wunderground v.1.15,2014-08-01 05:03:00,
2014-08-01 00:09:00,64.5,57.5,29.97,SW,227,0.0,0.0,78,0.00,,,0.00,Wunderground v.1.15,2014-08-01 05:09:00,
2014-08-01 00:15:00,64.3,57.3,29.98,SW,227,0.0,0.0,78,0.00,,,0.00,Wunderground v.1.15,2014-08-01 05:15:00,
2014-08-01 00:21:00,64.2,57.2,29.98,SW,227,0.0,0.0,78,0.00,,,0.00,Wunderground v.1.15,2014-08-01 05:21:00,
2014-08-01 00:27:00,64.0,57.0,29.98,SW,227,0.0,0.0,78,0.00,,,0.00,Wunderground v.1.15,2014-08-01 05:27:00,
2014-08-01 00:32:00,63.9,56.9,29.98,SW,227,0.0,0.0,78,0.00,,,0.00,Wunderground v.1.15,2014-08-01 05:32:00,
2014-08-01 00:37:00,63.7,56.7,29.98,SW,227,0.0,0.0,78,0.00,,,0.00,Wunderground v.1.15,2014-08-01 05:37:00,
2014-08-01 00:43:00,63.5,56.5,29.97,SW,227,0.0,0.0,78,0.00,,,0.00,Wunderground v.1.15,2014-08-01 05:43:00,
2014-08-01 00:49:00,63.4,56.8,29.97,SW,227,0.0,0.0,79,0.00,,,0.00,Wunderground v.1.15,2014-08-01 05:49:00,
2014-08-01 00:54:00,63.2,56.6,29.97,SW,227,0.0,0.0,79,0.00,,,0.00,Wunderground v.1.15,2014-08-01 05:54:00,
2014-08-01 00:59:00,63.2,56.9,29.97,SW,227,0.0,0.0,80,0.00,,,0.00,Wunderground v.1.15,2014-08-01 05:59:00,
2014-08-01 01:05:00,63.1,56.8,29.97,SW,227,0.0,0.0,80,0.00,,,0.00,Wunderground v.1.15,2014-08-01 06:05:00,
2014-08-01 01:10:00,62.9,56.3,29.97,SW,227,0.0,0.0,79,0.00,,,0.00,Wunderground v.1.15,2014-08-01 06:10:00,
2014-08-01 01:15:00,62.7,56.1,29.97,SW,227,0.0,0.0,79,0.00,,,0.00,Wunderground v.1.15,2014-08-01 06:15:00,
2014-08-01 01:20:00,62.6,56.0,29.97,SW,227,0.0,0.0,79,0.00,,,0.00,Wunderground v.1.15,2014-08-01 06:20:00,
2014-08-01 01:26:00,62.4,55.8,29.97,SW,227,0.0,0.0,79,0.00,,,0.00,Wunderground v.1.15,2014-08-01 06:26:00,
2014-08-01 01:31:00,62.3,55.7,29.98,SW,227,0.0,0.0,79,0.00,,,0.00,Wunderground v.1.15,2014-08-01 06:31:00,
2014-08-01 01:36:00,62.1,55.9,29.98,SW,227,0.0,0.0,80,0.00,,,0.00,Wunderground v.1.15,2014-08-01 06:36:00,
2014-08-01 01:41:00,62.1,55.9,29.98,SW,227,0.0,0.0,80,0.00,,,0.00,Wunderground v.1.15,2014-08-01 06:41:00,
2014-08-01 01:46:00,62.0,55.8,29.97,SW,227,0.0,0.0,80,0.00,,,0.00,Wunderground v.1.15,2014-08-01 06:46:00,
2014-08-01 01:52:00,61.8,55.6,29.97,SW,227,0.0,0.0,80,0.00,,,0.00,Wunderground v.1.15,2014-08-01 06:52:00,
2014-08-01 01:57:00,61.6,55.4,29.97,SW,227,0.0,0.0,80,0.00,,,0.00,Wunderground v.1.15,2014-08-01 06:57:00,
2014-08-01 02:02:00,61.5,55.3,29.98,SW,227,0.0,0.0,80,0.00,,,0.00,Wunderground v.1.15,2014-08-01 07:02:00,
2014-08-01 02:08:00,61.3,55.1,29.98,SW,227,0.0,0.0,80,0.00,,,0.00,Wunderground v.1.15,2014-08-01 07:08:00,
2014-08-01 02:13:00,61.3,55.1,29.98,SW,227,0.0,0.0,80,0.00,,,0.00,Wunderground v.1.15,2014-08-01 07:13:00,
2014-08-01 02:18:00,61.2,55.3,29.98,SW,227,0.0,0.0,81,0.00,,,0.00,Wunderground v.1.15,2014-08-01 07:18:00,
2014-08-01 02:24:00,61.0,55.1,29.98,SW,227,0.0,0.0,81,0.00,,,0.00,Wunderground v.1.15,2014-08-01 07:24:00,
2014-08-01 02:29:00,60.9,55.0,29.98,SW,227,0.0,0.0,81,0.00,,,0.00,Wunderground v.1.15,2014-08-01 07:29:00,
2014-08-01 02:34:00,60.7,54.8,29.98,SW,227,0.0,0.0,81,0.00,,,0.00,Wunderground v.1.15,2014-08-01 07:34:00,
2014-08-01 02:40:00,60.7,55.2,29.98,SW,227,0.0,0.0,82,0.00,,,0.00,Wunderground v.1.15,2014-08-01 07:40:00,
2014-08-01 02:45:00,60.7,55.2,29.98,SW,227,0.0,0.0,82,0.00,,,0.00,Wunderground v.1.15,2014-08-01 07:45:00,
2014-08-01 02:51:00,60.5,55.3,29.98,SW,227,0.0,0.0,83,0.00,,,0.00,Wunderground v.1.15,2014-08-01 07:51:00,
2014-08-01 02:57:00,60.5,55.3,29.98,SW,227,0.0,0.0,83,0.00,,,0.00,Wunderground v.1.15,2014-08-01 07:57:00,
2014-08-01 03:02:00,60.5,55.6,29.98,SW,227,0.0,0.0,84,0.00,,,0.00,Wunderground v.1.15,2014-08-01 08:02:00,
2014-08-01 03:08:00,60.5,56.0,29.98,SW,227,0.0,0.0,85,0.00,,,0.00,Wunderground v.1.15,2014-08-01 08:08:00,
2014-08-01 03:14:00,60.5,56.0,29.98,SW,227,0.0,0.0,85,0.00,,,0.00,Wunderground v.1.15,2014-08-01 08:14:00,
2014-08-01 03:19:00,60.5,56.0,29.98,SW,227,0.0,0.0,85,0.00,,,0.00,Wunderground v.1.15,2014-08-01 08:19:00,
2014-08-01 03:24:00,60.5,56.0,29.98,SW,227,0.0,0.0,85,0.00,,,0.00,Wunderground v.1.15,2014-08-01 08:24:00,
2014-08-01 03:30:00,60.4,55.9,29.98,SW,227,0.0,0.0,85,0.00,,,0.00,Wunderground v.1.15,2014-08-01 08:30:00,
2014-08-01 03:36:00,60.4,55.9,29.98,SW,227,0.0,0.0,85,0.00,,,0.00,Wunderground v.1.15,2014-08-01 08:36:00,
2014-08-01 03:42:00,60.2,55.7,29.98,SW,227,0.0,0.0,85,0.00,,,0.00,Wunderground v.1.15,2014-08-01 08:42:00,
2014-08-01 03:47:00,60.1,55.6,29.98,SW,227,0.0,0.0,85,0.00,,,0.00,Wunderground v.1.15,2014-08-01 08:47:00,
2014-08-01 03:53:00,60.1,55.6,29.98,SW,227,0.0,0.0,85,0.00,,,0.00,Wunderground v.1.15,2014-08-01 08:53:00,
2014-08-01 03:59:00,59.9,55.4,29.98,SW,227,0.0,0.0,85,0.00,,,0.00,Wunderground v.1.15,2014-08-01 08:59:00,
2014-08-01 04:04:00,59.9,55.4,29.98,SW,227,0.0,0.0,85,0.00,,,0.00,Wunderground v.1.15,2014-08-01 09:04:00,
2014-08-01 04:10:00,59.8,55.3,29.98,SW,227,0.0,0.0,85,0.00,,,0.00,Wunderground v.1.15,2014-08-01 09:10:00,
2014-08-01 04:15:00,59.8,55.3,29.98,SW,227,0.0,0.0,85,0.00,,,0.00,Wunderground v.1.15,2014-08-01 09:15:00,
2014-08-01 04:21:00,59.6,55.1,29.98,SW,227,0.0,0.0,85,0.00,,,0.00,Wunderground v.1.15,2014-08-01 09:21:00,
2014-08-01 04:27:00,59.5,55.0,29.98,SW,227,0.0,0.0,85,0.00,,,0.00,Wunderground v.1.15,2014-08-01 09:27:00,
2014-08-01 04:32:00,59.5,55.0,29.98,SW,227,0.0,0.0,85,0.00,,,0.00,Wunderground v.1.15,2014-08-01 09:32:00,
2014-08-01 04:38:00,59.3,54.8,29.98,SW,227,0.0,0.0,85,0.00,,,0.00,Wunderground v.1.15,2014-08-01 09:38:00,
2014-08-01 04:43:00,59.3,54.8,29.99,SW,227,0.0,0.0,85,0.00,,,0.00,Wunderground v.1.15,2014-08-01 09:43:00,
2014-08-01 04:48:00,59.2,54.7,29.99,SW,227,0.0,0.0,85,0.00,,,0.00,Wunderground v.1.15,2014-08-01 09:48:00,
2014-08-01 04:54:00,59.2,54.7,29.99,SW,227,0.0,0.0,85,0.00,,,0.00,Wunderground v.1.15,2014-08-01 09:54:00,
2014-08-01 05:00:00,59.0,54.5,29.99,SW,227,0.0,0.0,85,0.00,,,0.00,Wunderground v.1.15,2014-08-01 10:00:00,
2014-08-01 05:05:00,58.9,54.4,29.99,SW,227,0.0,0.0,85,0.00,,,0.00,Wunderground v.1.15,2014-08-01 10:05:00,
2014-08-01 05:10:00,58.9,54.4,29.99,SW,227,0.0,0.0,85,0.00,,,0.00,Wunderground v.1.15,2014-08-01 10:10:00,
2014-08-01 05:16:00,58.7,54.2,29.99,SW,227,0.0,0.0,85,0.00,,,0.00,Wunderground v.1.15,2014-08-01 10:16:00,
2014-08-01 05:22:00,58.6,54.1,29.99,SW,227,0.0,0.0,85,0.00,,,0.00,Wunderground v.1.15,2014-08-01 10:22:00,
2014-08-01 05:27:00,58.4,53.9,29.99,SW,227,0.0,0.0,85,0.00,,,0.00,Wunderground v.1.15,2014-08-01 10:27:00,
2014-08-01 05:33:00,58.4,53.9,29.99,SW,227,0.0,0.0,85,0.00,,,0.00,Wunderground v.1.15,2014-08-01 10:33:00,
2014-08-01 05:39:00,58.4,53.9,29.99,SW,227,0.0,0.0,85,0.00,,,0.00,Wunderground v.1.15,2014-08-01 10:39:00,
2014-08-01 05:45:00,58.3,54.1,30.00,SW,227,0.0,0.0,86,0.00,,,0.00,Wunderground v.1.15,2014-08-01 10:45:00,
2014-08-01 05:50:00,58.3,54.1,30.00,SW,227,0.0,0.0,86,0.00,,,0.00,Wunderground v.1.15,2014-08-01 10:50:00,
2014-08-01 05:55:00,58.3,54.1,30.00,SW,227,0.0,0.0,86,0.00,,,0.00,Wunderground v.1.15,2014-08-01 10:55:00,
2014-08-01 06:01:00,58.3,54.4,30.00,SW,227,0.0,0.0,87,0.00,,,0.00,Wunderground v.1.15,2014-08-01 11:01:00,
2014-08-01 06:07:00,58.3,54.4,30.00,SW,227,0.0,0.0,87,0.00,,,0.00,Wunderground v.1.15,2014-08-01 11:07:00,
2014-08-01 06:13:00,58.3,54.4,30.00,SW,227,0.0,0.0,87,0.00,,,0.00,Wunderground v.1.15,2014-08-01 11:13:00,
2014-08-01 06:19:00,58.3,54.8,30.00,SW,227,0.0,0.0,88,0.00,,,0.00,Wunderground v.1.15,2014-08-01 11:19:00,
2014-08-01 06:24:00,58.3,54.8,30.00,SW,227,0.0,0.0,88,0.00,,,0.00,Wunderground v.1.15,2014-08-01 11:24:00,
2014-08-01 06:30:00,58.4,54.9,30.00,SW,227,0.0,0.0,88,0.00,,,0.00,Wunderground v.1.15,2014-08-01 11:30:00,
2014-08-01 06:36:00,58.4,54.9,30.00,South,178,0.0,0.0,88,0.00,,,0.00,Wunderground v.1.15,2014-08-01 11:36:00,
2014-08-01 06:41:00,58.4,54.9,30.00,South,178,0.0,0.0,88,0.00,,,0.00,Wunderground v.1.15,2014-08-01 11:41:00,
2014-08-01 06:46:00,58.4,54.9,30.00,SE,133,0.0,0.0,88,0.00,,,0.00,Wunderground v.1.15,2014-08-01 11:46:00,
2014-08-01 06:52:00,58.6,55.4,30.00,SE,133,0.0,0.0,89,0.00,,,0.00,Wunderground v.1.15,2014-08-01 11:52:00,
2014-08-01 06:57:00,58.6,55.4,30.00,SE,133,0.0,0.0,89,0.00,,,0.00,Wunderground v.1.15,2014-08-01 11:57:00,
2014-08-01 07:02:00,58.7,55.5,30.00,SE,133,0.0,0.0,89,0.00,,,0.00,Wunderground v.1.15,2014-08-01 12:02:00,
2014-08-01 07:07:00,58.9,55.7,30.00,SE,133,0.0,0.0,89,0.00,,,0.00,Wunderground v.1.15,2014-08-01 12:07:00,
2014-08-01 07:13:00,59.0,56.1,30.01,SE,133,0.0,0.0,90,0.00,,,0.00,Wunderground v.1.15,2014-08-01 12:13:00,
2014-08-01 07:18:00,59.3,56.4,30.01,SE,133,0.0,0.0,90,0.00,,,0.00,Wunderground v.1.15,2014-08-01 12:18:00,
2014-08-01 07:23:00,59.6,56.7,30.01,SE,133,0.0,0.0,90,0.00,,,0.00,Wunderground v.1.15,2014-08-01 12:23:00,
2014-08-01 07:29:00,59.9,57.3,30.01,SE,133,0.0,0.0,91,0.00,,,0.00,Wunderground v.1.15,2014-08-01 12:29:00,
2014-08-01 07:35:00,60.2,57.6,30.01,SE,133,0.0,0.0,91,0.00,,,0.00,Wunderground v.1.15,2014-08-01 12:35:00,
2014-08-01 07:40:00,60.5,57.9,30.01,SE,133,0.0,0.0,91,0.00,,,0.00,Wunderground v.1.15,2014-08-01 12:40:00,
2014-08-01 07:45:00,60.9,58.3,30.02,SE,133,0.0,0.0,91,0.00,,,0.00,Wunderground v.1.15,2014-08-01 12:45:00,
2014-08-01 07:50:00,61.2,58.6,30.02,SE,133,0.0,0.0,91,0.00,,,0.00,Wunderground v.1.15,2014-08-01 12:50:00,
2014-08-01 07:56:00,61.5,58.8,30.02,SE,133,0.0,0.0,91,0.00,,,0.00,Wunderground v.1.15,2014-08-01 12:56:00,
2014-08-01 08:01:00,61.8,59.1,30.01,SE,133,0.0,0.0,91,0.00,,,0.00,Wunderground v.1.15,2014-08-01 13:01:00,
2014-08-01 08:07:00,62.1,59.4,30.01,SE,137,0.0,0.0,91,0.00,,,0.00,Wunderground v.1.15,2014-08-01 13:07:00,
2014-08-01 08:12:00,62.4,59.7,30.01,SE,128,0.0,0.0,91,0.00,,,0.00,Wunderground v.1.15,2014-08-01 13:12:00,
2014-08-01 08:17:00,62.6,59.9,30.02,SE,128,0.0,0.0,91,0.00,,,0.00,Wunderground v.1.15,2014-08-01 13:17:00,
2014-08-01 08:23:00,62.9,59.9,30.02,SE,131,0.0,0.0,90,0.00,,,0.00,Wunderground v.1.15,2014-08-01 13:23:00,
2014-08-01 08:28:00,63.2,59.9,30.02,SE,131,0.0,0.0,89,0.00,,,0.00,Wunderground v.1.15,2014-08-01 13:28:00,
2014-08-01 08:34:00,64.3,60.3,30.02,SW,220,0.0,0.0,87,0.00,,,0.00,Wunderground v.1.15,2014-08-01 13:34:00,
2014-08-01 08:40:00,67.3,59.1,30.02,SW,219,0.0,0.0,75,0.00,,,0.00,Wunderground v.1.15,2014-08-01 13:40:00,
2014-08-01 08:46:00,68.9,58.7,30.02,SSW,213,0.0,0.0,70,0.00,,,0.00,Wunderground v.1.15,2014-08-01 13:46:00,
2014-08-01 08:52:00,69.8,59.2,30.02,SW,219,0.0,0.0,69,0.00,,,0.00,Wunderground v.1.15,2014-08-01 13:52:00,
2014-08-01 08:57:00,70.3,58.8,30.02,SW,220,0.0,0.0,67,0.00,,,0.00,Wunderground v.1.15,2014-08-01 13:57:00,
2014-08-01 09:02:00,70.9,59.0,30.02,SW,220,0.0,0.0,66,0.00,,,0.00,Wunderground v.1.15,2014-08-01 14:02:00,
2014-08-01 09:08:00,70.8,59.3,30.02,SW,220,0.0,0.0,67,0.00,,,0.00,Wunderground v.1.15,2014-08-01 14:08:00,
2014-08-01 09:14:00,70.9,59.4,30.03,SW,227,0.0,0.0,67,0.00,,,0.00,Wunderground v.1.15,2014-08-01 14:14:00,
2014-08-01 09:19:00,71.6,60.1,30.03,SW,227,0.0,0.0,67,0.00,,,0.00,Wunderground v.1.15,2014-08-01 14:19:00,
2014-08-01 09:24:00,71.6,59.2,30.03,SW,232,0.0,0.0,65,0.00,,,0.00,Wunderground v.1.15,2014-08-01 14:24:00,
2014-08-01 09:29:00,71.8,59.0,30.02,NW,304,0.0,0.0,64,0.00,,,0.00,Wunderground v.1.15,2014-08-01 14:29:00,
2014-08-01 09:35:00,72.3,60.7,30.02,NW,304,0.0,0.0,67,0.00,,,0.00,Wunderground v.1.15,2014-08-01 14:35:00,
2014-08-01 09:41:00,72.7,59.8,30.02,NW,304,0.0,1.0,64,0.00,,,0.00,Wunderground v.1.15,2014-08-01 14:41:00,
2014-08-01 09:46:00,72.8,59.9,30.02,SW,224,0.0,1.0,64,0.00,,,0.00,Wunderground v.1.15,2014-08-01 14:46:00,
2014-08-01 09:52:00,73.2,60.3,30.02,NNW,328,0.0,0.0,64,0.00,,,0.00,Wunderground v.1.15,2014-08-01 14:52:00,
2014-08-01 09:58:00,73.5,61.9,30.02,NW,306,0.0,0.0,67,0.00,,,0.00,Wunderground v.1.15,2014-08-01 14:58:00,
2014-08-01 10:03:00,74.2,61.2,30.02,WSW,248,0.0,0.0,64,0.00,,,0.00,Wunderground v.1.15,2014-08-01 15:03:00,
2014-08-01 10:08:00,74.4,61.0,30.02,WNW,295,0.0,0.0,63,0.00,,,0.00,Wunderground v.1.15,2014-08-01 15:08:00,
2014-08-01 10:14:00,74.9,61.0,30.02,NW,323,0.0,0.0,62,0.00,,,0.00,Wunderground v.1.15,2014-08-01 15:14:00,
2014-08-01 10:20:00,75.1,60.7,30.02,West,281,0.0,0.0,61,0.00,,,0.00,Wunderground v.1.15,2014-08-01 15:20:00,
2014-08-01 10:26:00,75.8,62.3,30.02,West,281,0.0,0.0,63,0.00,,,0.00,Wunderground v.1.15,2014-08-01 15:26:00,
2014-08-01 10:31:00,76.1,60.2,30.02,NW,305,0.0,0.0,58,0.00,,,0.00,Wunderground v.1.15,2014-08-01 15:31:00,
2014-08-01 10:37:00,76.7,63.2,30.02,West,272,0.0,0.0,63,0.00,,,0.00,Wunderground v.1.15,2014-08-01 15:37:00,
2014-08-01 10:43:00,77.0,62.0,30.02,WSW,240,0.0,0.0,60,0.00,,,0.00,Wunderground v.1.15,2014-08-01 15:43:00,
2014-08-01 10:48:00,77.4,61.9,30.02,WSW,240,0.0,0.0,59,0.00,,,0.00,Wunderground v.1.15,2014-08-01 15:48:00,
2014-08-01 10:54:00,77.9,60.9,30.02,SW,236,0.0,0.0,56,0.00,,,0.00,Wunderground v.1.15,2014-08-01 15:54:00,
2014-08-01 10:59:00,77.7,60.2,30.02,WNW,298,0.0,0.0,55,0.00,,,0.00,Wunderground v.1.15,2014-08-01 15:59:00,
2014-08-01 11:05:00,77.9,61.9,30.02,WNW,302,0.0,0.0,58,0.00,,,0.00,Wunderground v.1.15,2014-08-01 16:05:00,
2014-08-01 11:10:00,77.4,62.4,30.02,WNW,302,0.0,0.0,60,0.00,,,0.00,Wunderground v.1.15,2014-08-01 16:10:00,
2014-08-01 11:15:00,77.9,60.4,30.02,WSW,257,0.0,1.0,55,0.00,,,0.00,Wunderground v.1.15,2014-08-01 16:15:00,
2014-08-01 11:21:00,77.9,59.4,30.02,SSW,208,0.0,0.0,53,0.00,,,0.00,Wunderground v.1.15,2014-08-01 16:21:00,